Simultaneous Nadir Overpasses (SNOs) Predictions

Prediction of SNOs between GOES-14 and NOAA-20 Satellite Orbit:

Table of predicted SNOs for the next 14.0 days since TLE Epoch: 12/17/2022
Index Date Time (GOES-14) GOES-14 Lat,Lon NOAA-20 Lat,Lon Distance(km) Time Diff (sec)
1 12/17/2022 20:04:28 0.05,-104.05 1.03, -99.72 493.41 80
2 12/19/2022 08:26:18 -0.06,-104.41 0.08,-105.01 68.50 80
3 12/20/2022 08:04:53 -0.05,-104.41 -0.90,-100.48 447.41 80
4 12/21/2022 20:26:50 0.06,-104.04 -0.34,-105.77 197.24 80
5 12/22/2022 20:10:46 0.05,-104.04 0.70,-101.25 319.59 80
6 12/24/2022 08:32:37 -0.06,-104.42 0.39,-106.54 241.00 80
7 12/25/2022 08:11:12 -0.05,-104.41 -0.59,-102.00 274.62 80
8 12/26/2022 20:33:08 0.06,-104.03 -0.64,-107.30 372.19 80
9 12/27/2022 20:17:04 0.06,-104.03 0.34,-102.76 144.58 80
10 12/29/2022 08:38:54 -0.07,-104.43 0.75,-108.05 413.69 80
11 12/30/2022 08:17:30 -0.06,-104.42 -0.24,-103.52 102.66 80
